N605VV KAIA-KDEN

Flight info

Callsign N605VV
Flight time N/A
Altitude 31000
Route NYTRO AALLE4
Aircraft CL60/M-SBDE1E2E3FGHIJ1J4J5J7M3RWXYZ/LB1V1D1

Departure

Time 2026-05-04 19:38
Airport Alliance Municipal Airport (KAIA)

Arrival

Time N/A
Airport Denver International Airport (KDEN)
Time Latitude Longitude Altitude Speed Heading
2026-05-04 19:08 42.06158 -102.80689 3933 ft 0 kts 269°
2026-05-04 19:34 42.06158 -102.80690 3933 ft 0 kts 269°
2026-05-04 19:34 42.06151 -102.80718 3933 ft 5 kts 239°
2026-05-04 19:34 42.06105 -102.80741 3933 ft 9 kts 186°
2026-05-04 19:35 42.06078 -102.80829 3933 ft 13 kts 270°
2026-05-04 19:35 42.06076 -102.80969 3934 ft 16 kts 269°
2026-05-04 19:35 42.06074 -102.81132 3934 ft 18 kts 269°
2026-05-04 19:35 42.06073 -102.81321 3934 ft 21 kts 269°
2026-05-04 19:36 42.06071 -102.81509 3935 ft 17 kts 269°
2026-05-04 19:36 42.06070 -102.81677 3935 ft 16 kts 270°
2026-05-04 19:36 42.06036 -102.81805 3935 ft 16 kts 224°
2026-05-04 19:36 42.05951 -102.81915 3935 ft 12 kts 225°
2026-05-04 19:37 42.05892 -102.81969 3936 ft 7 kts 179°
2026-05-04 19:37 42.05868 -102.81930 3936 ft 7 kts 88°
2026-05-04 19:37 42.05871 -102.81554 3935 ft 89 kts 90°
2026-05-04 19:37 42.05878 -102.80418 4091 ft 151 kts 85°
2026-05-04 19:38 42.05823 -102.78910 4842 ft 173 kts 86°
2026-05-04 19:38 42.05729 -102.77354 5554 ft 173 kts 87°
2026-05-04 19:38 42.05429 -102.75534 6020 ft 228 kts 113°
2026-05-04 19:38 42.04256 -102.73943 6910 ft 263 kts 147°
2026-05-04 19:39 42.02388 -102.73301 7800 ft 292 kts 182°
2026-05-04 19:39 42.00549 -102.73968 9215 ft 288 kts 205°
2026-05-04 19:39 41.98782 -102.75223 10507 ft 292 kts 214°
2026-05-04 19:39 41.97088 -102.76815 11313 ft 313 kts 220°
2026-05-04 19:40 41.95296 -102.78593 12368 ft 325 kts 220°
2026-05-04 19:40 41.93470 -102.80395 13577 ft 329 kts 221°
2026-05-04 19:40 41.91654 -102.82183 14746 ft 332 kts 221°
2026-05-04 19:40 41.89770 -102.84038 15853 ft 338 kts 221°
2026-05-04 19:41 41.87883 -102.85894 16886 ft 343 kts 221°
2026-05-04 19:41 41.85947 -102.87797 17891 ft 348 kts 221°
2026-05-04 19:41 41.83991 -102.89716 18895 ft 352 kts 221°
2026-05-04 19:41 41.82023 -102.91645 19815 ft 356 kts 221°
2026-05-04 19:42 41.80006 -102.93620 20709 ft 361 kts 221°
2026-05-04 19:42 41.77972 -102.95611 21560 ft 366 kts 221°
2026-05-04 19:42 41.75909 -102.97626 22406 ft 370 kts 221°
2026-05-04 19:42 41.73842 -102.99646 23193 ft 375 kts 221°
2026-05-04 19:43 41.71767 -103.01672 23964 ft 379 kts 221°
2026-05-04 19:43 41.69667 -103.03718 24835 ft 381 kts 221°
2026-05-04 19:43 41.67503 -103.05824 25604 ft 384 kts 221°
2026-05-04 19:43 41.65366 -103.07903 26284 ft 388 kts 221°
2026-05-04 19:44 41.63289 -103.09924 26963 ft 390 kts 221°
2026-05-04 19:44 41.61087 -103.12062 27636 ft 392 kts 221°
2026-05-04 19:44 41.58795 -103.14042 28202 ft 402 kts 213°
2026-05-04 19:44 41.56097 -103.15293 28775 ft 417 kts 197°
2026-05-04 19:45 41.53182 -103.15628 29245 ft 429 kts 188°
2026-05-04 19:45 41.50178 -103.15728 29797 ft 432 kts 188°
2026-05-04 19:45 41.47192 -103.15836 30319 ft 434 kts 188°
2026-05-04 19:45 41.44162 -103.15946 30759 ft 437 kts 188°
2026-05-04 19:46 41.41059 -103.16064 30869 ft 448 kts 188°
2026-05-04 19:46 41.40031 -103.16103 30873 ft 452 kts 188°